Find Starlink 31937

NORAD ID: 59871 Int'l Des: 2024-098 Owner: SPXS Country: US Constellation: starlink operational
LEOCIRCULAR

現在のビュー

3D地球を読み込み中...

About Starlink 31937

Starlink 31937 (NORAD 59871) is a starlink constellation satellite (v2 mini) launched May 24, 2024 by SPXS of US. It operates in LEO, CIRCULAR orbit with a mass of 730.00 kg.

次回通過

Passes for default location (London). Set your location on the main map for personalized predictions.

高度履歴

Loading altitude history...

軌道要素

1 59871U 24098P 26263.98007871 .00000220 00000-0 17513-4 0 9997
2 59871 42.9998 248.1455 0000924 274.8404 85.2342 15.27575038131794
Epoch: Sep 20, 2026 • Age: 9 hours

現在のステータス

高度 493.2 km
遠地点 / 近地点 N/A
速度 7.62 km/s
衛星直下点 -36.67°S, 63.11°E
打ち上げ日 May 24, 2024
運用期間 2.3 years
タイプ internet

技術仕様

分類 Payload
質量 730.00 kg
乾燥質量 700.00 kg
長さ 0.30 m
スパン 29.00 m
形状 ? Box + pan
製造者 SPXS
バスタイプ Starlink V2M
フェーズステータス In Orbit
所有者/国 SPXS/US

Most Searched